GFSFLT2_700_spd_066.txt.gz
Wind_Speed
19 19 24 25 26 32 39 34 34 35 30 24 22 19 17 20 14 17 18 17 17 16 15 16 16 15 14 14 13 12 13 13
20 20 19 25 27 31 42 49 31 39 34 25 23 19 16 21 18 20 19 19 18 17 17 17 16 16 16 15 13 11 14 13
21 21 21 22 24 27 34 43 43 23 29 28 27 23 22 20 20 20 20 19 18 18 18 17 17 17 17 16 16 15 15 14
24 23 21 20 22 26 26 27 49 39 40 35 29 23 21 26 23 23 23 22 20 20 18 18 18 18 16 16 16 16 14 14
25 26 22 19 18 19 28 28 26 18 34 33 30 26 26 30 27 27 26 23 22 21 18 18 16 16 17 17 16 16 15 13
16 18 20 17 15 17 22 19 26 30 33 33 32 31 30 29 26 27 26 24 22 20 20 19 18 18 16 15 15 14 14 13
9 12 16 14 11 11 9 10 22 38 35 36 34 31 31 30 31 30 26 23 21 21 21 21 20 18 15 17 15 14 14 14
5 11 14 17 12 9 3 14 18 40 36 37 34 32 33 31 31 27 25 23 22 21 21 21 20 17 17 17 18 13 15 15
4 8 11 12 14 10 6 8 6 23 30 36 37 33 35 34 30 30 26 25 24 23 21 20 20 19 18 17 16 15 16 15
6 10 11 11 13 14 12 11 13 20 36 36 37 33 39 36 32 30 27 26 26 26 23 23 21 19 19 18 17 17 16 15
7 9 12 13 14 15 16 13 17 24 34 36 31 35 35 39 38 37 30 30 29 28 26 24 21 21 20 19 19 18 16 15
9 10 12 12 17 18 17 16 14 19 30 29 33 41 39 45 41 28 35 30 31 30 28 27 23 21 19 20 20 20 18 18
9 13 15 14 17 19 18 11 8 17 19 35 32 36 37 56 45 43 37 32 31 30 29 27 24 22 18 20 22 22 21 18
11 13 16 16 18 18 14 11 7 13 31 35 27 36 34 45 50 44 36 34 33 30 28 28 22 22 23 23 21 21 21 21
10 13 16 14 19 19 15 16 9 23 31 33 24 26 33 47 54 46 40 36 35 30 29 34 26 23 24 22 21 22 21 23
9 11 13 10 14 20 19 17 11 14 21 28 32 25 28 43 44 46 43 40 36 38 40 32 29 28 25 25 25 23 20 23
9 7 10 6 9 19 25 22 16 17 16 20 24 29 28 29 37 43 41 41 42 41 39 34 33 32 31 27 28 25 23 22
9 5 6 3 3 8 16 25 23 22 23 22 21 29 26 33 36 44 45 46 47 46 38 35 39 33 34 34 33 31 30 28
8 6 4 2 1 7 11 15 21 20 20 26 26 24 26 33 34 46 52 52 47 49 40 37 32 34 38 38 32 31 30 29
8 7 5 3 1 2 7 13 18 17 20 25 27 24 23 27 29 35 52 53 53 46 43 42 38 43 38 36 36 36 37 34

GFSFLT2_700_spd_072.txt.gz
Wind_Speed
19 18 20 21 22 27 31 36 41 38 34 24 36 26 36 23 21 20 20 22 22 21 18 17 17 15 15 17 18 16 15 16
21 21 22 22 24 25 29 30 36 33 24 27 30 21 27 21 18 20 22 23 22 20 19 20 18 15 16 17 17 17 17 17
18 20 25 25 25 27 26 28 30 34 31 22 27 36 29 26 25 20 21 25 24 22 20 20 18 18 16 16 15 17 16 15
18 21 24 26 27 28 26 25 27 27 27 27 26 36 35 26 27 25 27 25 25 23 23 23 20 19 16 16 16 15 15 15
22 22 21 24 28 27 24 22 26 27 26 29 21 34 39 31 34 33 26 28 28 29 27 25 20 18 17 16 17 16 16 16
21 21 17 16 22 22 22 23 25 26 32 34 34 34 39 33 33 34 29 29 29 28 26 24 22 20 16 16 18 17 18 17
18 17 10 10 19 21 20 22 24 26 34 39 41 53 40 36 34 37 35 33 31 30 27 25 25 22 18 18 17 18 20 18
15 9 7 9 15 17 17 17 24 28 29 28 32 45 42 37 31 33 35 32 33 28 26 27 27 24 19 20 21 21 21 19
11 9 8 11 12 15 14 14 15 20 19 31 44 44 40 34 33 33 31 33 30 29 29 29 27 26 24 21 20 20 19 19
11 9 8 10 12 14 13 12 6 16 22 36 45 43 37 33 30 35 31 34 31 32 31 30 28 26 23 21 21 17 19 20
12 9 6 8 12 14 14 11 6 19 24 40 42 39 35 31 30 33 36 35 34 33 32 29 30 29 25 21 19 17 19 20
13 9 7 6 8 12 13 13 11 18 24 29 28 33 36 32 31 34 37 37 36 35 32 31 29 29 27 24 21 18 18 17
14 10 7 8 9 12 16 15 17 17 18 21 27 29 34 36 37 36 37 39 38 35 34 33 32 31 29 28 25 21 20 20
13 12 9 9 10 11 15 17 17 17 22 22 31 37 41 33 37 35 40 38 38 38 37 36 34 33 31 28 27 25 22 23
13 11 9 11 10 9 11 17 17 23 22 21 35 39 40 38 36 31 42 43 42 38 36 35 35 34 31 29 30 27 23 26
11 11 8 9 8 4 7 12 14 15 20 24 39 37 35 36 34 32 36 44 45 43 40 38 32 34 34 32 28 22 35 28
10 9 8 6 4 0 9 14 14 11 14 25 33 36 37 33 34 38 36 46 49 47 47 44 34 33 35 33 29 30 37 28
9 8 6 5 2 3 7 13 13 13 13 15 27 25 29 31 33 41 33 42 45 44 39 43 38 30 32 32 31 38 33 25
10 8 5 4 2 1 6 9 13 13 12 11 8 26 31 25 25 35 38 43 42 41 44 36 35 39 35 36 39 43 34 30
11 7 4 4 1 1 4 7 8 9 12 11 11 9 18 22 25 22 28 39 45 41 38 43 34 33 38 41 42 48 40 37

GFSFLT2_700_spd_078.txt.gz
Wind_Speed
19 17 15 15 15 15 17 20 26 31 33 36 35 33 32 27 25 26 24 24 23 21 19 18 18 17 16 15 14 13 12 12
18 19 20 17 17 19 19 20 25 34 35 37 43 37 29 38 33 27 27 22 21 20 20 20 18 18 18 16 16 14 13 11
17 20 23 21 21 22 24 25 27 29 32 34 33 37 25 38 38 32 33 25 25 24 23 21 20 21 18 18 15 14 12 12
19 21 24 22 23 23 25 28 28 29 30 33 35 34 27 20 27 29 29 27 26 24 23 22 23 21 20 18 15 14 10 13
21 23 25 24 24 22 24 27 29 29 28 29 28 27 19 20 22 38 31 29 28 28 25 24 21 19 16 15 14 11 14 14
21 23 24 24 23 19 17 22 26 26 27 26 23 22 22 23 22 36 33 31 30 27 26 24 23 21 20 18 15 16 16 17
21 22 23 22 20 16 12 14 21 23 24 24 23 22 23 25 23 24 35 33 30 27 25 25 24 24 21 20 19 16 17 17
17 20 22 21 19 15 9 9 14 19 22 21 22 23 23 30 24 35 41 34 31 28 25 25 23 23 21 19 19 18 18 18
16 20 21 20 19 15 10 10 13 17 17 19 21 24 27 27 31 28 42 36 33 31 28 25 26 24 20 21 18 19 19 18
16 19 20 19 20 16 13 14 16 19 21 21 24 30 32 34 37 27 42 38 35 32 29 29 27 24 23 25 22 21 21 17
17 20 19 19 19 17 14 15 17 20 22 22 22 27 38 40 38 30 41 39 36 33 29 29 28 28 25 23 21 19 19 19
18 19 18 19 18 18 16 15 17 19 20 23 23 22 29 40 38 36 40 40 37 35 31 31 28 28 26 24 23 22 21 21
17 18 17 19 17 18 17 18 17 19 16 14 17 24 31 43 35 43 39 38 36 35 34 34 33 32 28 29 28 25 24 23
16 16 16 17 16 16 18 19 19 18 11 11 6 22 23 34 36 42 38 37 37 38 36 36 34 32 31 28 27 27 25 24
14 14 15 15 16 15 16 17 18 16 12 6 4 18 18 26 44 38 36 35 38 38 36 36 35 33 32 29 30 29 24 25
15 13 13 13 14 15 15 13 12 13 11 5 6 9 25 18 37 36 38 38 38 36 36 35 33 32 32 31 30 28 26 28
15 12 10 10 12 14 11 7 9 14 13 13 13 15 17 23 21 38 38 37 35 35 35 34 32 33 32 30 30 32 33 30
17 13 10 8 9 11 9 5 7 12 12 12 15 19 22 22 27 26 28 37 41 37 36 35 35 39 35 34 31 31 31 29
18 12 9 8 7 8 6 5 8 10 9 8 8 11 21 26 27 31 34 32 30 33 40 46 43 40 44 37 34 34 31 27
21 14 11 8 7 5 4 2 7 7 9 7 8 7 18 21 29 28 30 29 28 25 27 31 37 39 43 44 45 36 40 39

GFSFLT2_700_spd_081.txt.gz
Wind_Speed
12 13 12 13 13 12 12 15 19 24 27 28 30 31 28 29 28 29 23 21 20 21 18 17 17 17 18 17 17 16 16 14
12 13 14 15 16 15 14 18 22 25 30 30 34 29 29 19 29 25 26 27 22 19 19 18 18 19 20 20 18 17 15 14
10 13 16 18 20 17 16 21 25 27 30 31 32 34 31 31 25 34 37 32 22 19 21 20 20 21 21 20 19 16 15 14
10 14 16 18 21 19 20 23 28 30 29 28 29 30 30 27 25 32 35 29 26 22 21 20 22 24 23 20 19 17 16 16
10 13 16 18 21 20 21 22 26 30 30 28 26 25 28 26 15 17 33 32 37 26 24 25 24 22 20 19 19 17 17 16
13 16 16 17 21 20 20 19 19 23 27 27 25 22 20 22 15 16 27 33 40 31 27 24 23 23 21 20 18 17 16 14
12 15 15 17 20 20 17 16 14 19 22 25 25 22 21 23 25 20 26 34 34 30 26 26 26 26 24 21 19 18 16 13
10 13 15 17 19 20 16 13 12 14 19 21 22 22 21 24 24 24 24 37 35 28 27 26 26 25 23 21 20 17 16 17
11 13 16 17 17 20 14 12 14 12 16 19 19 20 23 25 25 29 27 18 33 32 30 29 27 26 25 22 20 18 17 15
14 16 15 17 16 18 14 12 14 14 17 19 20 21 24 25 27 32 24 30 33 34 30 30 30 28 26 23 20 19 16 18
17 18 16 18 16 18 15 12 14 16 19 20 21 21 24 26 35 32 31 26 35 34 33 30 30 28 26 24 22 21 17 18
21 21 17 18 17 18 14 14 15 17 19 21 21 23 25 25 41 34 37 31 40 38 34 33 32 29 28 25 22 20 21 21
20 21 18 18 18 17 14 14 16 18 20 21 20 26 28 33 45 39 38 33 42 39 33 34 34 32 29 28 25 26 23 23
20 20 18 19 17 16 14 16 18 18 17 18 17 23 23 29 39 43 41 37 44 40 35 36 33 31 31 29 29 29 27 25
20 16 17 18 17 15 14 18 17 15 12 13 15 16 27 29 32 30 35 42 43 38 37 36 31 33 31 34 33 31 25 25
18 17 19 18 17 13 13 16 16 10 7 11 5 2 12 17 35 36 38 42 38 35 34 36 33 32 34 34 32 29 24 24
20 19 18 16 15 12 12 13 11 7 10 10 5 1 7 10 20 36 43 38 36 36 35 35 32 33 32 30 30 30 29 25
22 20 18 14 13 11 10 9 8 8 10 8 9 8 9 9 9 20 37 41 40 37 34 33 32 31 31 31 31 30 28 26
22 22 19 14 13 10 9 5 7 9 10 10 10 13 16 16 14 19 23 33 35 38 38 39 38 36 36 37 40 41 36 41
25 20 17 13 13 10 8 5 9 9 11 9 8 10 12 22 21 25 24 23 19 27 26 42 44 39 39 40 39 43 45 39

GFSFLT2_700_spd_084.txt.gz
Wind_Speed
12 12 13 9 9 9 9 11 14 18 21 23 25 27 27 27 28 27 29 31 22 21 18 14 15 17 17 16 16 17 18 19
9 13 14 11 10 11 11 12 16 20 21 24 28 29 30 30 34 24 31 29 24 22 17 17 17 18 17 17 17 18 18 18
9 10 13 14 12 14 14 14 17 20 24 26 29 30 30 32 29 23 25 27 29 27 18 20 20 19 19 18 20 20 19 18
9 10 12 14 14 15 17 16 18 19 23 26 30 32 31 29 21 24 25 28 32 35 20 23 22 24 23 21 21 20 20 19
12 11 11 14 16 16 19 18 19 20 23 26 28 29 29 26 28 26 25 33 27 43 28 27 25 25 23 24 23 22 23 21
18 14 14 16 16 16 18 18 18 20 22 26 28 28 27 26 25 23 20 17 33 40 32 26 26 25 24 25 24 23 20 19
21 15 14 15 14 16 17 18 17 18 20 24 25 28 27 24 23 26 20 17 30 36 33 29 27 26 26 24 23 20 19 18
22 17 14 14 14 15 17 18 16 16 17 22 23 27 26 24 24 25 24 15 25 39 33 29 28 28 26 24 22 22 19 20
22 18 16 15 14 14 17 18 15 14 14 18 22 25 25 24 23 24 25 15 29 36 35 30 30 27 27 24 23 20 19 22
24 20 20 17 14 13 16 18 14 13 13 17 20 23 25 25 25 26 26 21 26 31 31 31 30 29 29 27 24 21 21 20
27 22 22 20 15 13 16 18 13 13 14 17 20 23 24 25 26 28 28 31 28 20 35 32 33 31 30 28 26 24 24 21
28 26 24 23 15 14 17 18 14 14 14 17 21 23 25 27 28 31 29 35 31 29 40 31 33 33 31 29 27 26 23 20
31 27 25 23 17 15 17 16 16 16 16 18 22 26 28 29 31 34 35 39 33 29 37 36 35 34 32 33 29 27 24 22
31 28 25 22 20 17 18 17 17 17 18 20 23 25 29 32 36 40 37 44 34 34 39 34 36 35 34 31 30 29 27 22
31 29 24 21 20 19 19 19 17 16 18 20 21 24 26 30 30 37 33 44 40 34 39 38 38 37 36 34 34 31 26 24
32 29 25 21 19 19 21 18 15 16 14 15 15 17 22 27 35 30 41 43 39 38 41 40 39 39 38 35 31 25 27 25
31 29 26 21 21 19 19 15 15 13 12 15 13 10 6 16 20 30 35 35 43 37 43 43 37 33 33 34 29 31 27 22
34 30 26 22 20 18 16 12 13 10 11 14 15 12 5 4 10 21 29 27 37 38 45 39 35 39 33 32 31 30 28 28
32 28 25 23 20 18 14 12 11 11 11 11 10 9 11 7 4 7 24 26 37 39 38 41 34 35 33 33 31 31 32 33
32 29 26 24 21 18 14 11 10 10 11 11 10 10 10 11 11 8 14 31 42 39 41 40 34 37 37 35 35 37 38 38

GFSFLT2_700_spd_087.txt.gz
Wind_Speed
11 11 11 12 8 6 7 9 10 13 17 19 21 23 25 25 27 27 24 28 19 16 16 15 13 15 17 16 15 14 16 18
12 10 10 12 10 8 8 8 11 13 18 19 24 26 27 28 27 27 28 27 29 28 20 17 14 16 17 16 14 16 20 21
14 12 10 11 10 10 11 10 11 13 16 21 25 28 29 29 29 29 33 28 33 33 26 22 18 18 18 17 17 19 19 24
18 15 13 12 11 11 13 13 13 14 16 19 27 29 29 30 28 30 32 19 26 26 33 30 23 21 22 21 23 22 17 24
23 18 15 14 13 14 14 15 15 15 17 18 24 28 32 31 31 33 22 21 23 27 29 33 27 23 23 23 26 21 24 23
26 22 17 18 17 16 15 15 15 16 17 20 22 26 30 31 30 32 30 25 24 25 34 38 28 27 25 26 25 23 12 24
29 26 21 20 18 16 15 16 16 15 16 21 23 26 28 29 28 27 25 24 21 23 27 43 32 29 27 26 25 21 26 22
33 28 25 22 19 15 15 16 16 14 16 19 23 24 26 29 27 27 24 24 20 20 32 34 33 30 29 30 30 28 23 22
37 30 28 24 21 18 17 16 17 14 15 19 20 22 24 27 28 25 24 25 24 24 28 35 32 32 29 29 29 27 24 21
41 34 31 27 24 22 18 17 17 15 15 18 18 19 22 25 26 25 25 22 25 26 32 39 32 31 29 31 29 27 25 22
41 34 31 29 27 23 20 17 17 16 16 19 19 18 20 25 26 27 27 22 25 22 35 37 31 32 32 28 30 26 23 22
39 33 32 30 30 25 21 18 17 17 18 19 19 19 21 24 27 29 29 28 28 27 28 37 33 31 29 29 29 29 26 25
36 34 34 34 28 26 22 19 18 19 20 21 20 21 23 26 28 29 32 29 30 35 26 34 29 32 30 34 30 29 25 24
38 33 34 33 28 26 24 21 18 20 22 23 21 23 26 29 31 32 32 31 34 34 32 29 34 37 39 34 33 30 27 24
40 38 35 32 30 28 25 22 20 22 23 24 23 24 26 30 32 34 37 33 36 37 40 36 33 36 38 34 33 31 26 25
41 39 36 31 29 27 25 21 22 23 24 23 24 23 21 23 27 32 38 39 38 43 42 40 35 43 35 32 32 26 29 26
43 40 34 29 27 26 23 22 23 24 22 21 17 16 17 15 18 33 38 37 39 40 50 39 36 36 37 31 33 28 24 25
45 41 33 27 26 27 21 21 23 24 19 15 15 16 17 13 12 12 24 33 37 41 39 39 40 35 33 36 32 30 26 22
46 42 36 27 27 26 20 20 20 21 15 14 15 17 16 13 10 7 19 27 27 30 43 40 40 36 36 34 33 30 26 24
47 40 35 28 30 24 21 21 18 18 12 13 16 15 13 12 13 8 12 17 24 32 40 41 39 38 33 34 31 32 32 33

GFSFLT2_700_spd_093.txt.gz
Wind_Speed
16 13 11 10 9 10 6 7 8 10 12 13 15 18 19 20 20 22 21 19 19 16 18 21 17 14 14 14 15 15 14 15
20 16 13 11 10 9 7 9 9 11 13 14 14 17 19 21 22 21 20 20 19 18 24 11 24 15 17 17 16 14 15 19
23 20 17 14 11 10 7 9 11 11 12 14 15 16 19 20 21 22 22 23 23 23 23 21 16 21 20 20 20 18 18 19
26 25 22 18 15 12 9 9 11 13 13 14 16 17 19 21 21 23 24 25 25 26 26 24 14 22 24 22 22 20 18 17
27 29 27 21 19 14 13 11 12 14 14 14 16 17 19 22 24 24 25 26 27 28 24 21 22 25 24 24 24 21 21 22
37 29 32 26 23 19 17 12 13 15 15 15 17 18 19 21 23 24 26 26 26 26 30 27 25 27 27 26 27 25 25 25
35 29 29 30 27 23 20 14 15 15 16 15 17 19 19 20 22 22 23 27 28 26 21 18 15 25 29 32 30 27 24 25
31 31 30 30 30 26 22 17 17 16 16 17 19 19 20 21 20 21 22 25 29 26 22 19 21 17 23 35 30 29 28 26
36 29 29 30 30 30 24 21 19 17 17 18 19 20 20 21 20 22 21 24 21 21 23 21 22 24 23 34 31 31 30 31
39 33 31 31 34 32 28 24 22 19 19 20 20 21 20 22 21 22 22 22 22 22 23 25 18 25 27 35 35 34 33 32
39 38 34 33 31 32 30 28 26 21 22 21 21 21 21 21 20 21 22 22 24 23 24 26 21 26 27 35 37 36 37 36
44 40 37 34 32 32 31 29 29 25 24 22 21 21 21 20 19 21 19 21 23 24 24 22 29 28 27 36 38 35 39 32
49 40 38 36 37 32 33 32 31 26 25 24 23 22 21 19 20 22 21 23 25 25 24 26 24 18 23 37 39 34 37 32
44 42 34 35 37 37 31 31 28 28 27 26 24 23 21 20 22 22 24 26 28 28 28 28 24 18 31 34 37 38 35 34
40 40 37 38 40 38 35 30 28 31 27 25 25 25 23 22 24 23 24 28 31 30 28 29 28 22 38 46 42 42 41 36
39 38 41 39 40 40 35 31 29 27 25 25 27 26 24 24 23 22 24 27 31 30 29 30 30 27 27 38 41 34 34 29
37 37 35 39 43 39 35 32 29 29 29 28 26 24 23 24 23 22 21 23 26 30 30 31 32 30 28 34 39 33 28 21
35 34 37 36 36 43 39 32 28 28 29 26 24 23 23 23 20 19 20 19 19 25 30 32 33 33 32 32 39 38 36 27
34 34 33 31 31 33 36 31 28 28 28 25 22 20 22 20 19 19 20 20 22 20 28 35 37 35 39 35 34 43 34 28
34 33 35 32 28 27 30 25 26 27 26 23 18 19 20 19 17 18 21 22 23 24 27 39 37 33 33 42 36 35 36 33